This is the latest recevied weather packets stored in our database for station/object NI0Z. If no packets are shown the sender has not sent any weather packets the latest 10 day(s).
| Time | Temp. | Humidity | Pressure | Rain* | Wind** | Luminosity | Snow |
|---|---|---|---|---|---|---|---|
| 1777924497 | 27.22° C | 46% | - | 0 mm | - | - | - |
| 1777924194 | 27.22° C | 48% | - | 0 mm | - | - | - |
| 1777923890 | 27.22° C | 48% | - | 0 mm | - | - | - |
| 1777923586 | 26.67° C | 48% | - | 0 mm | - | - | - |
| 1777923283 | 27.22° C | 48% | - | 0 mm | - | - | - |
| 1777922982 | 27.22° C | 49% | - | 0 mm | - | - | - |
| 1777922679 | 27.22° C | 49% | - | 0 mm | - | - | - |
| 1777922378 | 27.22° C | 48% | - | 0 mm | - | - | - |
| 1777922075 | 27.22° C | 47% | - | 0 mm | - | - | - |
| 1777921770 | 26.67° C | 47% | - | 0 mm | - | - | - |
| 1777921466 | 26.11° C | 49% | - | 0 mm | - | - | - |
| 1777921163 | 26.67° C | 47% | - | 0 mm | - | - | - |
| 1777920861 | 26.11° C | 47% | - | 0 mm | - | - | - |
| 1777920556 | 26.11° C | 47% | - | 0 mm | - | - | - |
| 1777920252 | 26.11° C | 46% | - | 0 mm | - | - | - |
| 1777919948 | 25.56° C | 47% | - | 0 mm | - | - | - |
| 1777919646 | 25.56° C | 53% | - | 0 mm | - | - | - |
| 1777919343 | 25.56° C | 48% | - | 0 mm | - | - | - |
| 1777919040 | 25.56° C | 49% | - | 0 mm | - | - | - |
| 1777918736 | 25° C | 48% | - | 0 mm | - | - | - |
| 1777918434 | 25° C | 51% | - | 0 mm | - | - | - |
| 1777918133 | 25.56° C | 47% | - | 0 mm | - | - | - |
| 1777917831 | 25° C | 49% | - | 0 mm | - | - | - |
| 1777917529 | 25° C | 48% | - | 0 mm | - | - | - |
| 1777917225 | 25° C | 49% | - | 0 mm | - | - | - |
* Rain latest hour (hover to see other rain measurements)
** Current wind speed in m/s (hover to see current wind gust speed)